Location: Marcé
(47.5801°N, 0.3280°W)
Time: 08:27:05
(UTC+01:00)

Explorer 7 - Pass Details

Date: 06 December 2021
Orbit: 483 x 674 km, 50.3° (Epoch: 24 January)

Event Time Altitude Azimuth Distance (km) Brightness Sun altitude
Rises 04:41:35 0° 194° (SSW) 2,889 - -38.2°
Reaches altitude 10° 04:44:43 10° 172° (S) 1,947 - -37.7°
Maximum altitude 04:47:22 16° 136° (SE) 1,580 - -37.3°
Exits shadow 04:49:24 12° 105° (ESE) 1,769 10.0 -36.9°
Drops below altitude 10° 04:49:56 10° 99° (E) 1,880 10.2 -36.9°
Sets 04:52:52 0° 77° (ENE) 2,737 11.4 -36.4°
